This demonstration page uses our WeatherBlox Daily Observations layout. Learn more.

Left ArrowRight Arrow

Hourly Observations for September 10, 2018

Temp ( °F °C ) Dew Point ( °F °C ) Humidity (%) Winds ( mph kmh ) Pressure ( in mb ) Visibility ( mi km ) Precip ( " mm )
12:57 am 00:57 Cloudy 61 16.1 57 13.9 87 87 S 12 19 29.98 1015 10 16 0.00 0.00
1:57 am 01:57 Cloudy 62 16.7 57 13.9 84 84 S 14 22 29.98 1015 10 16 0.00 0.00
2:57 am 02:57 Cloudy 62 16.7 57 13.9 84 84 S 12 19 29.97 1015 10 16 0.00 0.00
3:57 am 03:57 Cloudy 62 16.7 57 13.9 84 84 SSW 9 15 29.97 1015 10 16 0.00 0.00
4:57 am 04:57 Mostly Cloudy 60 15.6 56 13.3 86 86 S 9 15 29.97 1015 10 16 0.00 0.00
5:57 am 05:57 Mostly Clear 59 15 56 13.3 90 90 S 9 15 29.97 1015 10 16 0.00 0.00
6:57 am 06:57 Clear 58 14.4 55 12.8 90 90 SSW 10 17 29.98 1015 10 16 0.00 0.00
7:57 am 07:57 Sunny 58 14.4 56 13.3 93 93 S 6 9 30.00 1016 10 16 0.00 0.00
8:57 am 08:57 Sunny 62 16.7 57 13.9 84 84 S 13 20 30.00 1016 10 16 0.00 0.00
9:57 am 09:57 Sunny 66 18.9 59 15 78 78 S 14 22 30.00 1016 10 16 0.00 0.00
10:57 am 10:57 Sunny 70 21.1 60 15.6 71 71 S 14 22 29.99 1016 10 16 0.00 0.00
11:57 am 11:57 Sunny 73 22.8 60 15.6 64 64 SSW 16 26 29.97 1015 10 16 0.00 0.00
12:57 pm 12:57 Sunny 75 23.9 60 15.6 60 60 S 20 31 29.95 1014 10 16 0.00 0.00
1:57 pm 13:57 Sunny 77 25 62 16.7 60 60 S 17 28 29.93 1014 10 16 0.00 0.00
2:57 pm 14:57 Sunny 78 25.6 62 16.7 58 58 S 18 30 29.92 1013 10 16 0.00 0.00
3:57 pm 15:57 Sunny 79 26.1 62 16.7 56 56 S 15 24 29.91 1013 10 16 0.00 0.00
4:57 pm 16:57 Sunny 78 25.6 62 16.7 58 58 S 16 26 29.91 1013 10 16 0.00 0.00
5:57 pm 17:57 Sunny 77 25 63 17.2 62 62 S 14 22 29.90 1013 10 16 0.00 0.00
6:57 pm 18:57 Sunny 75 23.9 60 15.6 60 60 S 16 26 29.91 1013 10 16 0.00 0.00
7:57 pm 19:57 Clear 71 21.7 60 15.6 68 68 SSE 12 19 29.91 1013 10 16 0.00 0.00
8:57 pm 20:57 Clear 68 20 59 15 73 73 SSE 10 17 29.92 1013 10 16 0.00 0.00
9:57 pm 21:57 Clear 66 18.9 59 15 78 78 SSE 13 20 29.93 1014 10 16 0.00 0.00
10:57 pm 22:57 Clear 65 18.3 59 15 81 81 SSE 13 20 29.93 1014 10 16 0.00 0.00
11:57 pm 23:57 Clear 64 17.8 60 15.6 87 87 S 13 20 29.94 1014 10 16 0.00 0.00

Powered by AerisWeather